Weather Roundup
Issued by NWS

Home | Current Version | Previous Version | Graphics & Text | Print | Product List | Glossary Off
Versions: 1 2 3 4 5 6 7 8 9 10 11 12 13 14 15 16 17 18 19 20 21 22 23 24 25 26 27 28 29 30 31 32 33 34 35 36 37 38 39 40 41 42 43 44 45 46 47 48 49 50

000
NZUS93 KARX 160810
HRRWXR

CURRENT HOURLY OBSERVATIONS ACROSS
MUCH OF THE UPPER MISSISSIPPI VALLEY
NATIONAL WEATHER SERVICE LA CROSSE WI
200 AM CST TUE JAN 16 2018


...SOUTHEAST MINNESOTA...


CITY           SKY/WX    TMP DP  RH WIND       PRES   REMARKS
ROCHESTER      CLOUDY     1  -2  87 NW16      30.49R WCI -19
ROCHESTER/MAYO CLOUDY     3  -2  81 NW14G20   30.51R WCI -15
WINONA         FLURRIES  10   5  79 NW10G17     N/A  WCI  -3
AUSTIN         FLURRIES  -2  -8  78 N14       30.51R WCI -21
ALBERT LEA     CLOUDY    -6 -11  77 NW8G16    30.54R HAZE    WCI -21
DODGE CENTER   LGT SNOW   1  -4  78 NW20      30.50R WCI -20
PRESTON        LGT SNOW   3  -2  80 NW13      30.48R WCI -14
OWATONNA       CLOUDY    -2  -6  84 NW12      30.56R WCI -20
FARIBAULT      FLURRIES   0  -6  78 NW7       30.58R WCI -13
$$

...ELSEWHERE IN MINNESOTA...


CITY           SKY/WX    TMP DP  RH WIND       PRES   REMARKS
MINNEAPOLIS    FAIR      -1  -5  82 NW9       30.60R WCI -16
INTNL FALLS    FLURRIES  -1  -5  82 NW8       30.67F WCI -15
DULUTH         MOCLDY     1  -2  87 N15       30.55R WCI -18
RED WING       FLURRIES   3  -4  72 W7        30.56R WCI  -9
REDWOOD FALLS  CLOUDY    -9 -14  78 NW15      30.69R WCI -31
MANKATO        FLURRIES  -7 -12  79 NW14      30.62R WCI -28
WORTHINGTON    PTCLDY   -10 -15  78 NW22      30.62R WCI -36
FAIRMONT       LGT SNOW  -7 -12  79 NW22G28   30.62R WCI -32
$$

...SOUTHWEST WISCONSIN...


CITY           SKY/WX    TMP DP  RH WIND       PRES   REMARKS
LA CROSSE      LGT SNOW   9   4  80 NW13      30.50R WCI  -7
PRAIRIE DU CHI CLOUDY     6  -1  73 NW7       30.49R WCI  -5
BOSCOBEL       CLOUDY     9   2  73 NW3       30.48R
LONE ROCK      CLOUDY    10   5  80 W9        30.44R WCI  -3
PLATTEVILLE    CLOUDY     6   3  87 NW8       30.42R WCI  -7
FORT MC COY    FLURRIES   9   6  87 CALM      30.47R
CAMP DOUGLAS   MOCLDY   N/A N/A N/A W8        30.44R
MAUSTON-NEW LI FLURRIES   9   5  86 NW8       30.42R WCI  -4
VIROQUA        CLOUDY     6   4  94 NW13      30.40S WCI -10
WIS DELLS      MOCLDY    10   7  87 NW8       30.39R WCI  -2
$$

...ELSEWHERE IN WISCONSIN...


CITY           SKY/WX    TMP DP  RH WIND       PRES   REMARKS
MILWAUKEE      LGT SNOW  21  18  88 NW8       30.32R FOG     WCI  11
MADISON        CLOUDY    12   9  87 NW6       30.37R WCI   3
GREEN BAY      CLOUDY    17  12  80 N12       30.38R WCI   4
EAU CLAIRE     FAIR       8   4  83 N8        30.49R WCI  -4
BLACK RVR FLS  LGT SNOW  10   5  79 NW5       30.46R WCI   2
MEDFORD        FAIR       8   6  90 N7        30.40R WCI  -3
WAUSAU         MOCLDY     9   6  88 VRB3      30.40R
WIS RAPIDS     CLOUDY    10   6  84 N7        30.42R WCI  -1
MARSHFIELD     FAIR      13   9  84 N8        30.40R WCI   2
RICE LAKE      FAIR       6   1  83 CALM      30.52S
$$

...NORTHEAST IOWA...


CITY           SKY/WX    TMP DP  RH WIND       PRES   REMARKS
WATERLOO       FLURRIES  -4 -10  75 NW13      30.53S WCI -23
DUBUQUE        CLOUDY     4  -2  76 NW10      30.42R HAZE    WCI -11
DECORAH        CLOUDY     5   1  85 NW12G17   30.46R WCI -11
MASON CITY     LGT SNOW  -6 -12  75 NW18      30.56R WCI -29
CHARLES CITY   FLURRIES   0  -6  78 NW22      30.52R WCI -23
OELWEIN        FLURRIES  -2  -4  92 NW18      30.48S WCI -24
$$

...ELSEWHERE IN IOWA...


CITY           SKY/WX    TMP DP  RH WIND       PRES   REMARKS
DES MOINES     FLURRIES  -6 -13  71 NW14      30.62R WCI -26
IOWA CITY      CLOUDY    -2 -11  65 NW12      30.56R WCI -20
FORT DODGE     FLURRIES  -8 -14  74 NW8G18    30.61R WCI -24
MARSHALLTOWN   CLOUDY    -8 -13  78 NW16      30.55S WCI -30
CEDAR RAPIDS   CLOUDY    -4 -10  75 NW17      30.51R WCI -26
$$

...NORTHERN ILLINOIS...


CITY           SKY/WX    TMP DP  RH WIND       PRES   REMARKS
CHICAGO-OHARE  LGT SNOW   9   4  80 W9        30.33R WCI  -4
CHICAGO-MIDWAY LGT SNOW   7   3  84 W12       30.36R FOG     WCI  -8
MOLINE         MOCLDY     0  -7  72 W16       30.50R WCI -20
ROCKFORD       LGT SNOW   8   4  83 W8        30.40R WCI  -4
PEORIA         FAIR      -2  -9  72 W10       30.51R WCI -19
$$

NOTE: "FAIR" INDICATES FEW OR NO CLOUDS BELOW 12,000 FEET WITH NO
SIGNIFICANT WEATHER AND/OR OBSTRUCTIONS TO VISIBILITY. WIND
SPEEDS ARE IN MILES-PER-HOUR.




USA.gov is the U.S. government's official web portal to all federal, state and local government web resources and services.